Location: *
(40.7765°S, 106.5327°E)
Time: 14:58:03
(UTC+00:00)

Meteor 1-26 Rocket - Pass Details

Date: 26 May 2022
Orbit: 809 x 926 km, 81.3° (Epoch: 04 July)

Event Time Altitude Azimuth Distance (km) Brightness Sun altitude
Rises 11:07:30 0° 191° (S) 3,610 7.5 -16.7°
Reaches altitude 10° 11:10:00 10° 192° (SSW) 2,661 6.8 -17.1°
Maximum altitude 11:16:07 81° 277° (W) 948 4.5 -18.3°
Drops below altitude 10° 11:22:05 10° 3° (N) 2,597 6.8 -19.4°
Sets 11:24:31 0° 4° (N) 3,518 7.5 -19.8°
